ONEWEB-0701, 61607

Orbit data source: Space-Track

ONEWEB-0701, 61607 is a payload satellite owned by Eut. One Web (UK) in LEO that was launched on Sun, 20 Oct 2024 UTC via an FALCON 9 launch vehicle from the Air Force Western Test Range (AFWTR). Payload-class satellites include a variety of spacecraft equipped with specific instruments for various scientific and technological missions. These include communications satellites like Starlink; space stations such as the ISS; scientific satellites like the Hubble; Earth observation satellites from companies like Planet Labs, Umbra, and HawkEye 360; GPS; miniature CubeSats for education and research; and military/defense satellites.

Loading next visibility...
Identifier
61607, 2024-188P
Orbit
LEO
Country
Flag of UKUK
Related business
Manufacturer
One Web
Mission
Operational Commercial Communications
Bus & Motor
ARROW, Unknown motor
Mass
148 kg wet, ~140 kg dry
Launch date (UTC)
2024-10-20 (1 year ago)
Launch vehicle
FALCON 9
Launch site
Air Force Western Test Range (AFWTR)
Object type
Payload
Rocket body
Debris
Shape & HBR
Trap Box + 2 Pan, 6.7 m
Radar Cross Section
3.464 m², Large (>1 m²)

Expand to show TLE details & history
Last TLE update: 1 day ago

TLE from 1 day ago
0 ONEWEB-0701
1 61607U 24188P   25305.61208452  .00000454  00000-0  12652-2 0  9997
2 61607  87.8784  81.6252 0002482  94.6078 265.5333 13.10370929 53503
Epoch: 2025-11-01T14:41Z
TLE epoch observation values (Epoch: 2025-11-01T14:41:24.102Z)
Latitude
-0.00001°
Longitude
-179.86489°
Altitude
1,224.759 km
Speed
7.242 km/s
True Right ascension
05h 26m 30s
True Declination
0° 00' 00"
Sunlit
Object was in full shadow at epoch
Visualization orbit readout
Latitude
Unknown
Longitude
Unknown
Altitude
Unknown
Speed
Unknown
Apparent Right ascension
Unknown
Apparent Declination
Unknown
Sunlit
N/A
Visualization observer readout
Local Sidereal Time
13:03:58
Azimuth
Unknown
Elevation
Unknown
Doppler factor
Unknown
Orbital elements
Apogee altitude
1,220.73 km
Perigee altitude
1,216.959 km
Semi-major axis
7,596.981 km
Eccentricity
0.00025
Inclination
87.8784°
RAAN
81.6252°
Arg. of periapsis
94.6078°
True anomaly
265.50495°
Mean anomaly
265.5333°
Eccentric anomaly
265.51912°
Mean motion
3.27779 °/min
Orbital period
109.83 mins
BSTAR
0.0012652
Loading maneuver chart data...
Computing Atmospheric mass density...
Loading historical data...
Loading historical data...
Loading historical data...
Loading historical data...
Loading historical data...
Loading historical data...
Loading historical data...

Documentation

Showing up to 5 results
|